Observations for Trim Patrick St
| Time | AQI | Temp °C | Hum % | Pres Pa | CO μg/m³ | H₂S μg/m³ | NO μg/m³ | NO₂ μg/m³ | O₃ μg/m³ | SO₂ μg/m³ | PM1 μg/m³ | PM2.5 μg/m³ | PM10 μg/m³ |
|---|---|---|---|---|---|---|---|---|---|---|---|---|---|
| Saturday 8 August 2026 | |||||||||||||
| 23:14 | 2 | 20 | 63 | 75,809 | 0 | 5.58 | 2.16 | 20.21 | 39.01 | 2.02 | 4.57 | 9.25 | 10.18 |
| 23:13 | 2 | 20 | 61 | 75,831 | 0 | 4 | 1.91 | 27.22 | 36.98 | 2.14 | 3.71 | 8.66 | 9.52 |
| 23:12 | 2 | 20 | 63 | 75,859 | 0 | 4.95 | 2.12 | 17.29 | 38.87 | 2.38 | 4.57 | 8.55 | 9.41 |
| 23:11 | 2 | 20 | 64 | 75,868 | 0 | 6.84 | 1.34 | 20.2 | 38.93 | 2.58 | 2.86 | 7.76 | 8.54 |
| 23:10 | 2 | 20 | 63 | 75,872 | 0 | 7.26 | 1.26 | 32.37 | 36.99 | 1.78 | 4.57 | 7.77 | 8.55 |
| 23:09 | 2 | 20.1 | 62 | 75,859 | 0 | 7.45 | 1.27 | 22.26 | 41.79 | 2.89 | 4.57 | 7.84 | 8.63 |
| 23:08 | 2 | 20 | 62 | 75,851 | 0 | 7.63 | 1.25 | 25.52 | 44.11 | 2.4 | 2.86 | 7.88 | 8.67 |
| 23:07 | 2 | 20.1 | 62 | 75,845 | 0 | 6.58 | 1.24 | 25.38 | 38.04 | 2.44 | 2.86 | 6.41 | 7.05 |
| 23:06 | 2 | 20.1 | 62 | 75,831 | 0 | 7.26 | 1.24 | 22.95 | 39.75 | 3.08 | 4.57 | 7.86 | 8.65 |
| 23:05 | 2 | 20.1 | 62 | 75,819 | 0 | 8 | 1.27 | 23.78 | 35.37 | 2.86 | 2.86 | 7.86 | 8.64 |
| 23:04 | 2 | 20.1 | 62 | 75,792 | 0 | 8.26 | 1.24 | 32.29 | 40.75 | 2.92 | 3.71 | 7.86 | 8.64 |
| 23:03 | 2 | 20.1 | 62 | 75,752 | 0 | 7.84 | 1.24 | 25.79 | 36.93 | 3.35 | 4.57 | 7.87 | 8.66 |
| 23:02 | 2 | 20.1 | 63 | 75,701 | 0 | 7.95 | 1.29 | 19.07 | 36.23 | 3.35 | 2.86 | 7.07 | 7.77 |
| 23:01 | 2 | 20.1 | 63 | 75,660 | 0 | 7.37 | 1.26 | 33.03 | 36.15 | 2.86 | 2.86 | 6.34 | 6.97 |
| 23:00 | 2 | 20.2 | 63 | 75,599 | 0 | 6.73 | 1.25 | 14.66 | 38.4 | 3.54 | 2.86 | 7.07 | 7.78 |
| 22:59 | 2 | 20.2 | 60 | 75,568 | 0 | 10.81 | 1.23 | 27.37 | 36.03 | 3.28 | 2.86 | 7.28 | 8.01 |
| 22:58 | 2 | 20.2 | 62 | 75,501 | 0 | 10.34 | 1.33 | 38.58 | 47.9 | 3.3 | 2.86 | 7.17 | 7.88 |
| 22:57 | 2 | 20.2 | 62 | 75,440 | 0 | 7.02 | 1.5 | 29.71 | 36.49 | 3.2 | 3.71 | 7.87 | 8.66 |
| 22:56 | 2 | 20.2 | 62 | 75,424 | 0 | 5.5 | 1.65 | 18.5 | 36.22 | 3.44 | 2.86 | 6.39 | 7.03 |
| 22:55 | 2 | 20.2 | 61 | 75,434 | 0 | 6.58 | 1.42 | 22.82 | 36.59 | 3.27 | 2.86 | 7.2 | 7.92 |